SCP
0 0 0 0 0 0 0 0 0 0 0 0 0 0 0 0 0 0 0 0 0 0 0 0 0 0 0 0 0 0 0 0 0 0 0 0 0 0 0 0 0 0 0
0 0 0 0 0 0 0 0 0 0 0 0 0 0 0 0 0 0 0 0 0 0 0 0 0 0 0 0 0 0 0 0 0 0 0 0 0 0 0 0 0 0 0
0 0 0 0 0 0 0 0 0 0 0 0 0 0 0 0 0 0 0 0 0 0 0 0 0 0 0 0 0 0 0 0 0 0 0 0 0 0 0 0 0 0 0
0 0 0 0 0 0 0 0 0 0 0 0 0 0 0 0 0 0 0 0 0 0 0 0 0 0 0 0 0 0 0 0 0 0 0 0 0 0 0 0 0 0 0
0 0 0 0 0 0 0 0 0 0 0 0 0 0 0 0 0 0 0 0 0 0 0 0 0 0 0 0 0 0 0 0 0 0 0 0 0 0 0 0 0 0 0
0 0 0 0 0 0 0 0 0 0 0 0 0 0 0 0 0 0 0 0 0 0 0 0 0 0 0 0 0 0 0 0 0 0 0 0 0 0 0 0 0 0 0
0 0 0 0 0 0 0 0 0 0 0 0 0 0 0 0 0 0 0 0 0 0 0 0 0 0 0 0 0 0 0 0 0 0 0 0 0 0 0 0 0 0 0
0 0 0 0 0 0 0 0 0 0 0 0 0 0 0 0 0 0 0 0 0 0 0 0 0 0 0 0 0 0 0 0 0 0 0 0 0 0 0 0 0 0 0
0 0 0 0 0 0 0 0 0 0 0 0 0 0 0 0 0 0 0 0 0 0 0 0 0 0 0 0 0 0 0 0 0 0 0 0 0 0 0 0 0 0 0
0 0 0 0 0 0 0 0 0 0 0 0 0 0 0 0 0 0 0 0 0 0 0 0 0 0 0 0 0 0 0 0 0 0 0 0 0 0 0 0 0 0 0
0 0 0 0 0 0 0 0 0 0 0 0 0 0 0 0 0 0 0 0 0 0 0 0 0 0 0 0 0 0 0 0 0 0 0 0 0 0 0 0 0 0 0
0 0 0 0 0 0 0 0 0 0 0 0 0 0 0 0 0 0 0 0 0 0 0 0 0 0 0 0 0 0 0 0 0 0 0 0 0 0 0 0 0 0 0
0 0 0 0 0 0 0 0 0 0 0 0 0 0 0 0 0 0 0 0 0 0 0 0 0 0 0 0 0 0 0 0 0 0 0 0 0 0 0 0 0 0 0
0 0 0 0 0 0 0 0 0 0 0 0 0 0 0 0 0 0 0 0 0 0 0 0 0 0 0 0 0 0 0 0 0 0 0 0 0 0 0 0 0 0 0
0 0 0 0 0 0 0 0 0 0 0 0 0 0 0 0 0 0 0 0 0 0 0 0 0 0 0 0 0 0 0 0 0 0 0 0 0 0 0 0 0 0 0
0 0 0 0 0 0 0 0 0 0 0 0 0 0 0 0 0 0 0 0 0 0 0 0 0 0 0 0 0 0 0 0 0 0 0 0 0 0 0 0 0 0 0
0 0 0 0 0 0 0 0 0 0 0 0 0 0 0 0 0 0 0 0 0 0 0 0 0 0 0 0 0 0 0 0 0 0 0 0 0 0 0 0 0 0 0
0 0 0 0 0 0 0 0 0 0 0 0 0 0 0 0 0 0 0 0 0 0 0 0 0 0 0 0 0 0 0 0 0 0 0 0 0 0 0 0 0 0 0
0 0 0 0 0 0 0 0 0 0 0 0 0 0 0 0 0 0 0 0 0 0 0 0 0 0 0 0 0 0 0 0 0 0 0 0 0 0 0 0 0 0 0
0 0 0 0 0 0 0 0 0 0 0 0 0 0 0 0 0 0 0 0 0 0 0 0 0 0 0 0 0 0 0 0 0 0 0 0 0 0 0 0 0 0 0
0 0 0 0 0 0 0 0 0 0 0 0 0 0 0 0 0 0 0 0 0 0 0 0 0 0 0 0 0 0 0 0 0 0 0 0 0 0 0 0 0 0 0
0 0 0 0 0 0 0 0 0 0 0 0 0 0 0 0 0 0 0 0 0 0 0 0 0 0 0 0 0 0 0 0 0 0 0 0 0 0 0 0 0 0 0
0 0 0 0 0 0 0 0 0 0 0 0 0 0 0 0 0 0 0 0 0 0 0 0 0 0 0 0 0 0 0 0 0 0 0 0 0 0 0 0 0 0 0
0 0 0 0 0 0 0 0 0 0 0 0 0 0 0 0 0 0 0 0 0 0 0 0 0 0 0 0 0 0 0 0 -0 -0 -0 0 0 -0 0 0 0 -0 -0
0 0 0 0 0 0 0 0 0 0 0 0 0 0 0 0 0 0 0 0 0 0 0 0 0 0 0 0 0 0 -0 -0 -0 -0 -0 -0 -0 -0 -0 -0 -0 -0 -0
0 0 0 0 0 0 0 0 0 0 0 0 0 0 0 0 0 0 0 0 0 0 0 0 0 0 0 0 -0 -0 -0 -0 -0 -0 -0 -0 -0 -0 -0 -0 -0 -0 -0
Wind_Speed_500mb
39 41 42 42 41 40 37 34 32 29 25 22 20 17 15 17 19 19 20 21 21 24 26 28 27 29 28 30 32 33 35 40 52 61 58 54 55 57 56 59 62 63 62
34 38 41 43 44 44 42 39 38 34 31 28 26 24 22 22 24 25 26 28 28 28 28 32 34 35 38 38 40 41 45 45 56 69 71 69 68 63 66 67 66 67 70
40 37 41 43 46 44 43 42 41 38 36 33 31 30 29 30 31 31 31 33 35 37 37 38 39 42 44 45 48 51 52 54 59 70 80 80 84 78 77 76 76 76 75
47 43 39 38 39 39 39 41 41 40 39 38 37 36 37 39 40 40 42 41 43 43 44 46 47 49 50 52 55 57 58 62 65 72 81 88 91 93 89 88 89 84 89
51 48 39 33 33 36 38 38 40 41 42 42 42 43 43 45 48 50 50 50 50 51 51 52 54 55 57 60 63 65 66 69 72 77 87 94 99 98 96 94 94 94 96
52 50 46 40 36 36 38 38 39 40 42 43 44 45 46 48 50 51 53 55 56 57 57 58 60 61 62 63 66 67 62 62 73 78 90 96 103 90 92 95 95 95 99
53 51 48 44 39 35 35 36 37 38 40 42 43 44 46 47 49 51 54 57 58 58 60 63 65 65 66 71 73 76 76 72 70 71 82 90 94 91 85 92 94 88 89
46 44 42 40 37 35 35 34 34 35 36 38 40 41 43 46 48 51 53 56 57 57 59 60 63 64 62 67 74 77 77 78 80 81 81 87 81 81 75 76 80 84 90
39 38 36 34 31 30 28 26 27 28 30 32 35 38 40 43 45 47 49 53 56 58 60 60 63 65 65 66 61 65 78 82 77 71 69 72 73 73 70 73 80 72 82
35 33 30 27 24 23 22 21 22 24 26 28 31 34 38 40 41 45 49 54 59 62 62 63 64 67 65 51 52 60 69 73 74 76 71 66 62 61 58 61 74 87 83
31 27 23 21 19 17 16 15 16 19 22 25 29 33 37 42 43 46 49 54 56 60 64 68 68 68 61 53 55 65 72 70 74 79 85 89 90 90 89 84 79 77 80
25 22 18 14 12 10 11 12 15 19 23 26 29 31 35 39 42 44 47 49 46 53 62 68 70 61 59 60 60 58 57 67 75 83 91 97 97 89 84 77 75 78 76
20 15 11 8 6 6 9 12 15 20 24 28 33 36 39 40 43 46 50 51 51 48 56 63 61 58 62 76 81 84 83 85 84 83 82 82 79 75 77 84 76 68 68
13 9 6 3 3 7 10 14 18 21 27 32 38 44 49 53 54 54 55 58 59 59 64 65 72 78 82 86 89 87 85 77 70 69 68 68 68 69 73 67 60 67 79
10 7 4 1 4 8 13 18 23 28 33 38 42 48 55 60 57 46 48 54 57 59 67 76 80 83 86 89 89 84 80 76 71 66 60 64 67 65 62 59 61 65 66
7 5 2 4 9 14 18 21 28 30 32 35 39 45 53 56 57 51 52 55 58 58 66 71 77 82 84 83 84 82 77 74 69 66 62 61 60 58 54 63 63 65 70
4 0 6 13 19 24 30 37 42 37 40 40 44 49 53 61 64 64 59 59 56 52 67 75 74 76 77 75 74 73 73 69 65 61 61 55 52 54 57 67 67 66 68
4 9 15 21 27 33 38 43 49 56 61 58 50 56 61 67 72 74 68 59 72 69 68 69 70 71 72 72 71 70 69 66 62 60 58 55 60 56 62 68 71 68 64
13 19 24 30 35 39 44 47 51 54 58 65 69 66 66 70 73 71 68 61 63 66 66 66 66 68 68 67 66 65 62 61 59 58 57 57 57 57 59 60 59 59 60
22 26 30 35 40 43 47 51 54 59 65 70 75 76 77 76 74 72 66 63 61 59 60 62 63 63 63 62 61 59 59 58 57 56 57 57 57 55 58 59 58 60 61
29 33 37 41 46 49 53 58 63 68 72 76 78 75 70 59 68 66 66 63 59 56 56 58 60 59 58 58 57 56 55 56 56 58 59 59 58 60 58 58 58 57 58
35 39 43 47 52 57 62 66 69 72 75 77 77 73 64 61 61 62 62 59 57 55 53 56 58 57 55 55 54 54 55 58 59 59 61 63 64 63 60 58 57 56 56
41 46 50 56 63 68 70 71 73 74 73 72 70 69 65 63 61 60 60 57 55 55 51 51 54 55 52 50 50 52 56 59 62 64 67 67 65 62 58 56 53 54 56
50 57 64 68 70 73 73 74 71 68 66 65 64 63 63 62 61 60 58 54 54 52 50 51 53 52 54 53 55 57 58 61 63 63 60 62 61 56 52 52 56 58 59
62 66 68 69 69 68 67 65 64 62 62 62 63 64 63 62 61 59 55 52 52 52 51 51 52 53 54 55 56 56 55 54 53 50 49 49 51 51 53 53 54 57 60
61 61 61 61 62 62 62 63 63 62 63 64 65 66 65 63 62 59 54 52 50 51 51 52 53 53 55 54 52 49 47 45 45 45 47 48 49 52 56 61 62 62 58
Wind_Direction_500mb
218 219 219 219 222 224 225 224 225 228 231 235 243 255 269 282 292 295 298 298 307 311 318 317 317 316 315 314 313 312 310 305 299 307 312 315 315 314 314 312 312 311 310
221 225 224 223 224 228 229 229 230 233 236 241 247 253 263 272 277 282 285 290 295 294 295 299 305 306 308 308 306 306 305 303 300 304 309 311 311 314 312 310 309 308 308
220 223 225 225 228 230 234 236 238 239 242 246 251 255 260 264 271 278 281 281 284 288 290 291 295 297 301 302 301 300 299 298 297 298 303 306 308 311 309 308 307 306 305
219 222 226 228 232 234 237 241 245 247 250 252 255 258 261 265 270 274 277 280 283 285 286 288 290 294 297 297 295 295 295 295 295 295 298 302 304 307 306 308 306 306 306
218 220 224 228 229 230 232 235 241 245 250 254 257 261 264 268 272 275 279 283 285 284 284 286 289 291 293 294 294 295 295 295 295 296 298 301 302 304 306 308 307 307 304
214 217 220 224 228 229 230 231 236 243 249 254 260 265 269 272 274 278 282 283 284 285 287 287 287 288 290 290 291 291 289 286 290 293 295 295 297 297 299 300 302 302 303
210 213 217 221 227 231 234 235 239 246 252 258 262 266 270 272 275 279 283 285 288 289 290 290 289 289 291 293 293 293 293 291 287 286 279 280 283 289 290 290 293 296 294
205 208 213 218 225 229 232 235 239 244 249 255 260 265 270 275 278 281 284 285 287 289 290 290 292 294 294 294 295 296 299 300 298 296 294 294 294 296 294 296 297 293 291
190 195 202 209 216 221 227 233 241 248 255 260 266 272 276 280 283 286 288 288 290 291 293 297 298 298 300 299 305 302 299 300 304 305 299 292 289 288 288 290 288 289 287
181 187 193 201 210 221 232 240 250 258 266 273 279 283 285 287 291 293 293 294 295 298 299 298 299 301 302 306 305 304 303 306 308 307 307 306 302 292 287 285 285 281 281
177 183 190 200 212 223 236 248 263 272 279 284 288 291 294 296 298 300 300 300 303 303 301 301 301 302 310 311 303 294 294 301 296 290 289 289 289 293 293 292 289 290 290
174 179 184 193 210 231 254 271 281 288 291 293 294 296 298 301 304 306 306 307 310 305 304 303 305 313 308 304 293 294 300 296 288 289 290 291 293 294 296 295 291 288 285
163 167 174 191 220 256 285 298 304 306 307 307 308 307 306 307 309 311 311 309 308 313 306 308 308 305 301 302 300 298 300 301 301 301 300 299 298 297 293 287 289 290 289
158 160 167 196 277 305 313 320 322 320 317 316 316 315 315 316 318 319 321 324 321 316 322 314 307 302 299 299 300 302 305 307 306 304 302 299 296 295 295 295 297 294 290
152 152 163 235 328 333 328 326 324 324 324 324 324 321 321 321 324 324 321 317 317 315 307 298 296 297 299 302 304 307 308 309 309 309 305 301 300 300 302 298 296 295 297
158 153 136 341 329 322 320 322 322 322 321 321 318 316 314 312 312 315 314 313 311 311 295 292 295 299 304 307 308 309 310 311 312 310 308 308 306 304 300 298 302 300 297
156 10 328 322 319 319 318 317 314 309 314 315 311 309 309 308 308 310 312 312 308 295 294 300 302 305 306 307 308 309 309 310 311 310 310 309 307 304 299 299 303 306 306
286 313 321 322 322 320 317 316 315 314 313 310 307 309 309 307 305 306 309 308 301 301 302 305 307 307 308 308 309 309 309 310 311 311 310 306 307 306 304 301 303 306 307
320 323 321 319 317 314 313 311 310 309 309 311 311 310 309 307 307 307 304 305 306 306 307 306 305 305 306 308 309 309 310 310 311 312 312 311 312 312 310 310 311 310 309
317 316 314 311 309 308 308 308 308 309 310 310 312 314 314 313 310 310 313 309 308 305 304 303 304 306 309 311 311 310 309 310 312 312 313 313 313 313 313 314 313 311 310
307 308 309 308 308 307 307 309 311 311 310 310 311 311 313 309 306 308 307 307 307 306 306 306 308 309 310 311 311 311 310 310 310 311 312 314 315 314 314 314 313 313 311
307 307 306 306 306 307 309 310 310 309 309 308 308 309 310 306 304 303 305 306 307 307 307 306 305 307 309 310 311 310 309 309 310 311 311 312 312 311 312 313 314 314 315
305 306 306 307 308 308 307 307 307 307 307 307 308 309 309 309 308 306 306 306 306 306 306 303 302 305 307 306 306 307 307 307 307 306 305 306 307 308 311 312 314 316 316
308 309 309 308 307 307 307 306 307 307 307 307 308 309 310 309 308 306 306 306 305 306 308 304 304 307 310 313 313 309 305 303 301 300 298 297 299 303 306 308 310 312 313
308 308 307 307 307 308 308 307 307 308 308 309 309 309 310 310 309 308 307 307 308 307 305 305 308 310 313 314 312 309 306 302 300 299 297 296 298 302 304 305 308 309 310
305 305 307 309 310 310 309 308 308 309 309 309 309 309 310 309 308 308 307 308 308 306 306 308 310 315 316 314 314 314 313 312 309 305 304 300 298 300 302 302 305 308 309
Wind_Speed_850mb
39 41 42 42 41 40 37 34 32 29 25 22 20 17 15 17 19 19 20 21 21 24 26 28 27 29 28 30 32 33 35 40 52 61 58 54 55 57 56 59 62 63 62
34 38 41 43 44 44 42 39 38 34 31 28 26 24 22 22 24 25 26 28 28 28 28 32 34 35 38 38 40 41 45 45 56 69 71 69 68 63 66 67 66 67 70
40 37 41 43 46 44 43 42 41 38 36 33 31 30 29 30 31 31 31 33 35 37 37 38 39 42 44 45 48 51 52 54 59 70 80 80 84 78 77 76 76 76 75
47 43 39 38 39 39 39 41 41 40 39 38 37 36 37 39 40 40 42 41 43 43 44 46 47 49 50 52 55 57 58 62 65 72 81 88 91 93 89 88 89 84 89
51 48 39 33 33 36 38 38 40 41 42 42 42 43 43 45 48 50 50 50 50 51 51 52 54 55 57 60 63 65 66 69 72 77 87 94 99 98 96 94 94 94 96
52 50 46 40 36 36 38 38 39 40 42 43 44 45 46 48 50 51 53 55 56 57 57 58 60 61 62 63 66 67 62 62 73 78 90 96 103 90 92 95 95 95 99
53 51 48 44 39 35 35 36 37 38 40 42 43 44 46 47 49 51 54 57 58 58 60 63 65 65 66 71 73 76 76 72 70 71 82 90 94 91 85 92 94 88 89
46 44 42 40 37 35 35 34 34 35 36 38 40 41 43 46 48 51 53 56 57 57 59 60 63 64 62 67 74 77 77 78 80 81 81 87 81 81 75 76 80 84 90
39 38 36 34 31 30 28 26 27 28 30 32 35 38 40 43 45 47 49 53 56 58 60 60 63 65 65 66 61 65 78 82 77 71 69 72 73 73 70 73 80 72 82
35 33 30 27 24 23 22 21 22 24 26 28 31 34 38 40 41 45 49 54 59 62 62 63 64 67 65 51 52 60 69 73 74 76 71 66 62 61 58 61 74 87 83
31 27 23 21 19 17 16 15 16 19 22 25 29 33 37 42 43 46 49 54 56 60 64 68 68 68 61 53 55 65 72 70 74 79 85 89 90 90 89 84 79 77 80
25 22 18 14 12 10 11 12 15 19 23 26 29 31 35 39 42 44 47 49 46 53 62 68 70 61 59 60 60 58 57 67 75 83 91 97 97 89 84 77 75 78 76
20 15 11 8 6 6 9 12 15 20 24 28 33 36 39 40 43 46 50 51 51 48 56 63 61 58 62 76 81 84 83 85 84 83 82 82 79 75 77 84 76 68 68
13 9 6 3 3 7 10 14 18 21 27 32 38 44 49 53 54 54 55 58 59 59 64 65 72 78 82 86 89 87 85 77 70 69 68 68 68 69 73 67 60 67 79
10 7 4 1 4 8 13 18 23 28 33 38 42 48 55 60 57 46 48 54 57 59 67 76 80 83 86 89 89 84 80 76 71 66 60 64 67 65 62 59 61 65 66
7 5 2 4 9 14 18 21 28 30 32 35 39 45 53 56 57 51 52 55 58 58 66 71 77 82 84 83 84 82 77 74 69 66 62 61 60 58 54 63 63 65 70
4 0 6 13 19 24 30 37 42 37 40 40 44 49 53 61 64 64 59 59 56 52 67 75 74 76 77 75 74 73 73 69 65 61 61 55 52 54 57 67 67 66 68
4 9 15 21 27 33 38 43 49 56 61 58 50 56 61 67 72 74 68 59 72 69 68 69 70 71 72 72 71 70 69 66 62 60 58 55 60 56 62 68 71 68 64
13 19 24 30 35 39 44 47 51 54 58 65 69 66 66 70 73 71 68 61 63 66 66 66 66 68 68 67 66 65 62 61 59 58 57 57 57 57 59 60 59 59 60
22 26 30 35 40 43 47 51 54 59 65 70 75 76 77 76 74 72 66 63 61 59 60 62 63 63 63 62 61 59 59 58 57 56 57 57 57 55 58 59 58 60 61
29 33 37 41 46 49 53 58 63 68 72 76 78 75 70 59 68 66 66 63 59 56 56 58 60 59 58 58 57 56 55 56 56 58 59 59 58 60 58 58 58 57 58
35 39 43 47 52 57 62 66 69 72 75 77 77 73 64 61 61 62 62 59 57 55 53 56 58 57 55 55 54 54 55 58 59 59 61 63 64 63 60 58 57 56 56
41 46 50 56 63 68 70 71 73 74 73 72 70 69 65 63 61 60 60 57 55 55 51 51 54 55 52 50 50 52 56 59 62 64 67 67 65 62 58 56 53 54 56
50 57 64 68 70 73 73 74 71 68 66 65 64 63 63 62 61 60 58 54 54 52 50 51 53 52 54 53 55 57 58 61 63 63 60 62 61 56 52 52 56 58 59
62 66 68 69 69 68 67 65 64 62 62 62 63 64 63 62 61 59 55 52 52 52 51 51 52 53 54 55 56 56 55 54 53 50 49 49 51 51 53 53 54 57 60
61 61 61 61 62 62 62 63 63 62 63 64 65 66 65 63 62 59 54 52 50 51 51 52 53 53 55 54 52 49 47 45 45 45 47 48 49 52 56 61 62 62 58
Wind_Direction_850mb
218 219 219 219 222 224 225 224 225 228 231 235 243 255 269 282 292 295 298 298 307 311 318 317 317 316 315 314 313 312 310 305 299 307 312 315 315 314 314 312 312 311 310
221 225 224 223 224 228 229 229 230 233 236 241 247 253 263 272 277 282 285 290 295 294 295 299 305 306 308 308 306 306 305 303 300 304 309 311 311 314 312 310 309 308 308
220 223 225 225 228 230 234 236 238 239 242 246 251 255 260 264 271 278 281 281 284 288 290 291 295 297 301 302 301 300 299 298 297 298 303 306 308 311 309 308 307 306 305
219 222 226 228 232 234 237 241 245 247 250 252 255 258 261 265 270 274 277 280 283 285 286 288 290 294 297 297 295 295 295 295 295 295 298 302 304 307 306 308 306 306 306
218 220 224 228 229 230 232 235 241 245 250 254 257 261 264 268 272 275 279 283 285 284 284 286 289 291 293 294 294 295 295 295 295 296 298 301 302 304 306 308 307 307 304
214 217 220 224 228 229 230 231 236 243 249 254 260 265 269 272 274 278 282 283 284 285 287 287 287 288 290 290 291 291 289 286 290 293 295 295 297 297 299 300 302 302 303
210 213 217 221 227 231 234 235 239 246 252 258 262 266 270 272 275 279 283 285 288 289 290 290 289 289 291 293 293 293 293 291 287 286 279 280 283 289 290 290 293 296 294
205 208 213 218 225 229 232 235 239 244 249 255 260 265 270 275 278 281 284 285 287 289 290 290 292 294 294 294 295 296 299 300 298 296 294 294 294 296 294 296 297 293 291
190 195 202 209 216 221 227 233 241 248 255 260 266 272 276 280 283 286 288 288 290 291 293 297 298 298 300 299 305 302 299 300 304 305 299 292 289 288 288 290 288 289 287
181 187 193 201 210 221 232 240 250 258 266 273 279 283 285 287 291 293 293 294 295 298 299 298 299 301 302 306 305 304 303 306 308 307 307 306 302 292 287 285 285 281 281
177 183 190 200 212 223 236 248 263 272 279 284 288 291 294 296 298 300 300 300 303 303 301 301 301 302 310 311 303 294 294 301 296 290 289 289 289 293 293 292 289 290 290
174 179 184 193 210 231 254 271 281 288 291 293 294 296 298 301 304 306 306 307 310 305 304 303 305 313 308 304 293 294 300 296 288 289 290 291 293 294 296 295 291 288 285
163 167 174 191 220 256 285 298 304 306 307 307 308 307 306 307 309 311 311 309 308 313 306 308 308 305 301 302 300 298 300 301 301 301 300 299 298 297 293 287 289 290 289
158 160 167 196 277 305 313 320 322 320 317 316 316 315 315 316 318 319 321 324 321 316 322 314 307 302 299 299 300 302 305 307 306 304 302 299 296 295 295 295 297 294 290
152 152 163 235 328 333 328 326 324 324 324 324 324 321 321 321 324 324 321 317 317 315 307 298 296 297 299 302 304 307 308 309 309 309 305 301 300 300 302 298 296 295 297
158 153 136 341 329 322 320 322 322 322 321 321 318 316 314 312 312 315 314 313 311 311 295 292 295 299 304 307 308 309 310 311 312 310 308 308 306 304 300 298 302 300 297
156 10 328 322 319 319 318 317 314 309 314 315 311 309 309 308 308 310 312 312 308 295 294 300 302 305 306 307 308 309 309 310 311 310 310 309 307 304 299 299 303 306 306
286 313 321 322 322 320 317 316 315 314 313 310 307 309 309 307 305 306 309 308 301 301 302 305 307 307 308 308 309 309 309 310 311 311 310 306 307 306 304 301 303 306 307
320 323 321 319 317 314 313 311 310 309 309 311 311 310 309 307 307 307 304 305 306 306 307 306 305 305 306 308 309 309 310 310 311 312 312 311 312 312 310 310 311 310 309
317 316 314 311 309 308 308 308 308 309 310 310 312 314 314 313 310 310 313 309 308 305 304 303 304 306 309 311 311 310 309 310 312 312 313 313 313 313 313 314 313 311 310
307 308 309 308 308 307 307 309 311 311 310 310 311 311 313 309 306 308 307 307 307 306 306 306 308 309 310 311 311 311 310 310 310 311 312 314 315 314 314 314 313 313 311
307 307 306 306 306 307 309 310 310 309 309 308 308 309 310 306 304 303 305 306 307 307 307 306 305 307 309 310 311 310 309 309 310 311 311 312 312 311 312 313 314 314 315
305 306 306 307 308 308 307 307 307 307 307 307 308 309 309 309 308 306 306 306 306 306 306 303 302 305 307 306 306 307 307 307 307 306 305 306 307 308 311 312 314 316 316
308 309 309 308 307 307 307 306 307 307 307 307 308 309 310 309 308 306 306 306 305 306 308 304 304 307 310 313 313 309 305 303 301 300 298 297 299 303 306 308 310 312 313
308 308 307 307 307 308 308 307 307 308 308 309 309 309 310 310 309 308 307 307 308 307 305 305 308 310 313 314 312 309 306 302 300 299 297 296 298 302 304 305 308 309 310
305 305 307 309 310 310 309 308 308 309 309 309 309 309 310 309 308 308 307 308 308 306 306 308 310 315 316 314 314 314 313 312 309 305 304 300 298 300 302 302 305 308 309